This demonstration page uses our WeatherBlox Daily Observations layout. Learn more.

Left ArrowRight Arrow

30.21309, -93.2044

Hourly Observations for June 24, 2019

Temp ( °F °C ) Dew Point ( °F °C ) Humidity (%) Winds ( mph kmh ) Pressure ( in mb ) Visibility ( mi km ) Precip ( " mm )
12:15 am 00:15 Cloudy 83 28.1 78 25.5 86 86 S 9 15 29.90 1013 7 11 0.00 0.00
12:35 am 00:35 Partly Cloudy 83 28.1 77 25.1 84 84 S 7 11 29.90 1013 7 11 0.00 0.00
12:55 am 00:55 Mostly Cloudy 82 28 77 25 84 84 S 7 11 29.91 1013 7 11 0.00 0.00
1:15 am 01:15 Mostly Cloudy 82 27.9 77 25 84 84 SSE 7 11 29.90 1013 7 11 0.00 0.00
1:35 am 01:35 Clear 82 27.9 77 24.9 84 84 S 8 13 29.90 1013 7 11 0.00 0.00
1:55 am 01:55 Clear 82 28 76 24.6 82 82 S 9 15 29.89 1012 7 11 0.00 0.00
2:15 am 02:15 Partly Cloudy 82 27.8 76 24.5 82 82 SSE 8 13 29.88 1012 7 11 0.00 0.00
2:35 am 02:35 Partly Cloudy 82 27.6 76 24.5 83 83 S 8 13 29.89 1012 7 11 0.00 0.00
2:55 am 02:55 Clear 82 27.6 76 24.5 83 83 SSE 8 13 29.88 1012 7 11 0.00 0.00
3:15 am 03:15 Mostly Cloudy 82 27.5 76 24.5 84 84 SE 7 11 29.87 1011 7 11 0.00 0.00
3:35 am 03:35 Cloudy 82 27.6 76 24.6 84 84 S 7 11 29.88 1012 7 11 0.00 0.00
3:55 am 03:55 Cloudy 82 27.7 76 24.7 84 84 E 7 11 29.89 1012 7 11 0.00 0.00
4:15 am 04:15 Cloudy with Nearby Thunderstorms 82 27.5 77 24.9 86 86 NNE 5 7 29.91 1013 7 11 0.00 0.00
4:35 am 04:35 Cloudy 81 27.2 77 25 88 88 NE 10 17 29.92 1013 7 11 0.00 0.00
4:55 am 04:55 Cloudy with Nearby Thunderstorms 68 19.9 67 19.2 96 96 NNE 22 35 29.97 1015 3 5 0.00 0.00
5:15 am 05:15 Cloudy with Thunderstorms 67 19.5 66 19 97 97 NE 14 22 29.99 1016 10 16 0.08 2.03
5:35 am 05:35 Cloudy with Thunderstorms 67 19.5 66 19 97 97 NNE 16 26 29.98 1015 7 11 0.10 2.54
6:00 am 06:00 Cloudy with Thunderstorms 66 19 66 19 100 100 N 15 24 29.98 1015 5 8 0.00 0.00
6:55 am 06:55 Cloudy with Light Rain 66 19 66 19 100 100 NE 8 13 30.02 1017 6 10 0.00 0.00
7:50 am 07:50 Cloudy with Light Rain 66 19 66 19 100 100 ENE 12 19 30.02 1017 6 10 0.00 0.00
8:55 am 08:55 Mostly Cloudy with Light Rain 66 19 66 19 100 100 E 12 19 30.06 1018 5 8 0.00 0.00
9:55 am 09:55 Mostly Cloudy with Light Rain 68 20 68 20 100 100 NE 8 13 30.07 1018 6 10 0.00 0.00
10:52 am 10:52 Mostly Cloudy 70 21 68 20 94 94 ESE 8 13 30.05 1018 7 11 0.00 0.00
11:50 am 11:50 Cloudy 70 21 68 20 94 94 SE 6 9 30.04 1017 10 16 0.00 0.00
12:55 pm 12:55 Mostly Cloudy 70 21 68 20 94 94 SE 17 28 29.94 1014 10 16 0.00 0.00
1:47 pm 13:47 Mostly Cloudy 75 24 70 21 83 83 SE 14 22 29.99 1016 10 16 0.00 0.00
2:50 pm 14:50 Mostly Sunny 77 25 68 20 74 74 SE 7 11 29.96 1015 10 16 0.00 0.00
3:50 pm 15:50 Mostly Sunny 81 27 70 21 70 70 Calm 29.94 1014 10 16 0.00 0.00
4:55 pm 16:55 Mostly Sunny 81 27 70 21 70 70 ESE 3 6 29.93 1014 10 16 0.00 0.00
5:50 pm 17:50 Mostly Sunny 81 27 70 21 70 70 Calm 29.94 1014 10 16 0.00 0.00
6:50 pm 18:50 Mostly Sunny 81 27 72 22 74 74 Calm 29.94 1014 10 16 0.00 0.00
7:50 pm 19:50 Mostly Sunny 77 25 73 23 89 89 ENE 3 6 29.93 1014 10 16 0.00 0.00
8:50 pm 20:50 Mostly Clear 75 24 73 23 94 94 Calm 29.94 1014 10 16 0.00 0.00
9:50 pm 21:50 Mostly Clear 75 24 73 23 94 94 E 5 7 29.93 1014 10 16 0.00 0.00
10:15 pm 22:15 Clear 75 23.7 73 22.8 95 95 E 5 7 29.93 1014 7 11 0.00 0.00
10:35 pm 22:35 Clear 75 24 73 22.7 92 92 Calm 29.92 1013 7 11 0.00 0.00
10:55 pm 22:55 Clear 75 23.8 73 22.7 94 94 E 7 11 29.94 1014 10 16 0.00 0.00
11:15 pm 23:15 Clear 75 24 73 22.8 93 93 E 3 6 29.94 1014 7 11 0.00 0.00
11:35 pm 23:35 Clear 75 23.7 73 22.6 94 94 Calm 29.95 1014 7 11 0.00 0.00
11:55 pm 23:55 Clear 75 24 73 22.5 91 91 Calm 29.96 1015 7 11 0.00 0.00

Powered by AerisWeather